TimePDT,TemperatureF,Dew PointF,Humidity,Sea Level PressureIn,VisibilityMPH,Wind Direction,Wind SpeedMPH,Gust SpeedMPH,PrecipitationIn,Events,Conditions,WindDirDegrees,DateUTC
12:53 AM,50.0,46.4,87,30.06,10.0,South,4.6,-,N/A,,Clear,190,2012-10-09 07:53:00
1:25 AM,48.2,46.4,93,30.07,10.0,South,3.5,-,N/A,,Partly Cloudy,180,2012-10-09 08:25:00
1:53 AM,48.9,46.0,90,30.09,10.0,South,4.6,-,N/A,,Mostly Cloudy,170,2012-10-09 08:53:00
2:53 AM,51.1,46.9,86,30.10,10.0,South,5.8,-,N/A,,Overcast,190,2012-10-09 09:53:00
3:53 AM,50.0,46.9,89,30.11,10.0,SSE,6.9,-,N/A,,Overcast,160,2012-10-09 10:53:00
4:53 AM,50.0,46.0,86,30.11,8.0,SSE,8.1,-,N/A,,Overcast,160,2012-10-09 11:53:00
5:53 AM,50.0,45.0,83,30.12,8.0,SE,5.8,-,N/A,,Overcast,130,2012-10-09 12:53:00
6:53 AM,50.0,46.0,86,30.13,9.0,SSW,8.1,-,N/A,,Overcast,200,2012-10-09 13:53:00
7:53 AM,50.0,46.0,86,30.14,10.0,SSW,4.6,-,N/A,,Overcast,210,2012-10-09 14:53:00
8:53 AM,50.0,45.0,83,30.15,10.0,South,5.8,-,N/A,,Overcast,190,2012-10-09 15:53:00
9:53 AM,51.1,45.0,80,30.16,10.0,Calm,Calm,-,N/A,,Overcast,0,2012-10-09 16:53:00
10:53 AM,51.1,45.0,80,30.16,10.0,Calm,Calm,-,N/A,,Overcast,0,2012-10-09 17:53:00
11:46 AM,51.8,44.6,76,30.13,10.0,SSW,3.5,-,N/A,,Overcast,200,2012-10-09 18:46:00
11:53 AM,52.0,45.0,77,30.16,10.0,SW,4.6,-,N/A,,Overcast,220,2012-10-09 18:53:00
12:53 PM,53.1,45.0,74,30.14,10.0,West,5.8,-,N/A,,Overcast,260,2012-10-09 19:53:00
1:53 PM,54.0,45.0,72,30.13,10.0,Calm,Calm,-,N/A,,Mostly Cloudy,0,2012-10-09 20:53:00
2:14 PM,55.4,44.6,67,30.10,10.0,WNW,4.6,-,N/A,,Scattered Clouds,300,2012-10-09 21:14:00
2:53 PM,59.0,45.0,60,30.12,10.0,Calm,Calm,-,N/A,,Clear,0,2012-10-09 21:53:00
3:53 PM,60.1,46.0,60,30.10,10.0,WNW,4.6,-,N/A,,Clear,290,2012-10-09 22:53:00
4:53 PM,59.0,46.0,62,30.09,10.0,West,5.8,-,N/A,,Clear,280,2012-10-09 23:53:00
5:53 PM,57.0,46.9,69,30.08,10.0,West,3.5,-,N/A,,Clear,280,2012-10-10 00:53:00
6:53 PM,55.0,46.0,72,30.07,10.0,Calm,Calm,-,N/A,,Clear,0,2012-10-10 01:53:00
7:53 PM,53.1,46.0,77,30.07,10.0,Calm,Calm,-,N/A,,Clear,0,2012-10-10 02:53:00
8:53 PM,51.1,46.0,83,30.06,10.0,North,3.5,-,N/A,,Clear,360,2012-10-10 03:53:00
9:53 PM,51.1,46.0,83,30.06,8.0,North,3.5,-,N/A,,Clear,350,2012-10-10 04:53:00
10:53 PM,51.1,45.0,80,30.06,7.0,Calm,Calm,-,N/A,,Clear,0,2012-10-10 05:53:00
11:53 PM,48.0,45.0,89,30.06,6.0,NW,3.5,-,N/A,,Clear,320,2012-10-10 06:53:00